Theta_e
329 325 324 329 329 329 330 330 331 331 331 331 330 330 330 330 330 331 332 333 336 341 342 344 345 347 350 350 350 351 352 355 353 344 343 342 341 342 342 343 344 345 346 346
324 323 323 324 326 327 328 330 331 330 331 331 330 329 330 329 329 329 329 329 330 335 340 343 345 347 348 346 348 350 351 350 352 349 345 343 343 342 343 343 344 344 345 346
325 324 323 325 326 326 327 327 328 330 330 330 329 329 329 328 328 328 329 330 332 333 336 341 343 340 344 339 349 350 347 350 350 350 345 343 345 346 344 344 345 344 344 345
321 323 324 325 326 326 326 327 327 328 328 329 328 327 327 327 328 328 328 329 331 331 332 337 340 338 345 347 345 346 346 345 346 348 347 349 349 346 344 345 346 346 344 345
320 321 323 323 323 323 326 327 327 327 328 328 327 327 327 326 327 328 329 330 331 331 332 333 335 338 340 347 349 350 344 342 341 343 352 356 349 343 346 350 351 355 356 353
316 320 322 323 323 322 326 329 329 331 333 334 336 332 330 327 328 328 330 330 330 330 331 332 330 332 341 345 348 346 341 341 343 341 344 346 344 349 351 356 356 357 356 355
314 316 318 320 323 329 328 339 336 335 336 338 342 340 337 336 336 335 334 333 333 333 329 330 328 332 333 343 343 340 352 352 346 342 341 343 343 344 346 349 356 355 355 351
313 314 314 315 317 320 328 330 332 334 334 335 337 338 341 342 342 338 337 342 345 338 330 332 331 326 327 328 334 346 348 349 349 348 347 355 348 347 348 349 349 349 349 351
313 313 314 314 314 317 319 320 323 331 335 336 337 338 341 344 344 336 340 345 348 336 338 344 332 330 331 330 333 344 347 346 347 347 346 347 351 354 358 357 356 356 355 358
313 313 314 314 315 315 315 317 320 321 329 335 337 340 344 345 344 346 349 353 352 348 347 349 339 343 342 338 339 339 340 341 344 356 357 359 358 360 358 358 358 356 355 356
315 315 313 311 311 312 314 315 315 317 326 333 337 341 345 344 345 348 350 348 349 351 351 350 348 348 348 349 354 350 354 357 358 358 358 360 359 359 359 358 359 359 358 358
314 313 314 314 313 313 313 316 317 322 325 331 338 340 341 344 345 345 346 345 345 345 345 345 344 338 336 337 338 345 353 353 353 353 355 357 358 359 358 358 359 356 357 356
314 311 312 313 314 314 317 319 321 325 327 335 337 337 339 341 341 341 343 344 346 347 347 347 346 338 333 332 332 333 337 339 346 347 348 349 352 356 357 360 353 353 352 352
311 311 311 313 312 315 316 320 324 328 332 335 336 335 336 337 338 340 342 342 343 344 345 345 340 336 336 336 337 339 337 336 343 342 347 350 353 354 356 353 355 351 354 355
308 309 310 311 315 317 320 322 327 331 333 335 336 335 336 337 338 337 337 339 341 342 343 343 340 339 341 343 341 337 339 341 341 340 337 339 343 345 347 348 348 350 351 351
308 308 310 312 313 316 323 326 327 328 334 335 336 337 335 334 333 332 332 333 334 334 334 338 341 341 339 339 340 339 337 334 337 339 336 337 337 338 340 342 342 337 334 331
314 314 314 315 317 322 323 325 327 330 332 333 333 333 332 330 329 329 329 329 328 329 329 333 336 339 342 343 341 340 339 340 336 338 338 336 334 334 336 336 334 332 331 331
321 319 319 317 323 324 323 328 327 329 329 329 328 326 326 326 326 325 325 326 327 326 326 326 330 335 335 338 341 340 340 338 338 337 337 335 336 335 335 334 333 329 327 329
314 318 321 323 324 322 324 323 322 321 321 322 323 324 324 323 322 323 323 323 324 324 324 324 325 328 333 336 339 339 337 336 336 337 338 335 334 333 333 332 332 331 331 330
315 315 315 317 319 319 318 318 318 318 318 318 318 318 318 318 320 319 319 320 319 321 323 327 327 326 328 330 333 335 338 339 337 335 334 334 334 334 334 334 332 331 332 331
316 317 316 316 317 317 317 316 316 317 317 318 318 317 317 317 318 317 316 317 316 318 319 323 326 325 325 328 329 329 330 331 333 336 336 333 331 330 330 331 335 333 333 333
311 312 313 316 315 316 316 317 318 317 316 316 317 315 314 315 314 315 316 315 317 317 317 318 319 323 323 322 321 322 322 323 324 326 328 329 330 330 330 330 330 331 331 331
310 310 310 310 311 311 315 315 314 313 313 313 312 310 310 309 309 310 309 310 312 314 315 316 318 318 318 319 318 317 316 317 319 323 324 325 327 327 327 327 327 328 329 329
309 309 309 309 309 310 310 309 312 312 310 310 308 308 308 308 307 307 306 307 307 308 309 310 311 312 314 316 317 318 317 316 314 314 316 318 319 319 320 325 325 325 324 321
308 308 308 307 307 307 308 308 307 306 305 304 303 303 302 303 303 303 303 304 305 305 305 306 307 308 309 310 309 313 316 316 315 315 314 313 314 314 313 313 313 317 321 323
302 305 306 306 305 305 306 305 304 304 303 302 302 301 301 300 301 301 301 300 300 301 301 302 303 305 306 306 307 307 307 308 311 312 312 313 314 312 312 312 312 312 312 311
300 299 302 303 303 302 302 302 302 301 301 301 300 300 299 299 298 299 298 298 298 298 299 299 299 299 302 303 304 304 305 305 304 305 307 308 309 310 312 311 311 310 309 309
Wind_Speed
12 4 5 12 27 29 30 27 25 19 21 17 8 9 9 12 11 7 5 4 9 14 19 21 25 31 36 36 38 39 43 41 49 53 54 53 53 51 48 48 46 45 44 43
13 10 8 11 14 15 20 23 25 26 24 13 10 5 15 17 20 23 25 22 18 16 17 19 23 26 29 36 39 40 42 49 47 46 48 51 53 53 52 50 49 47 49 48
14 9 10 15 22 20 19 19 17 23 17 16 17 17 21 22 23 22 21 20 17 16 18 18 22 22 25 28 30 37 43 44 45 45 44 44 47 48 50 52 51 51 50 52
6 7 15 10 8 19 25 21 21 20 17 17 14 19 22 22 23 24 28 25 24 22 19 19 20 20 22 24 30 38 41 41 44 46 45 42 42 44 45 47 50 51 52 53
11 13 10 7 5 7 11 16 18 18 14 15 22 26 29 28 28 28 28 28 27 25 22 20 22 21 19 23 27 32 39 39 41 43 40 36 42 43 43 40 41 40 39 44
8 16 16 4 16 10 5 10 11 5 10 10 9 12 13 22 24 27 26 26 26 23 22 22 25 21 20 23 25 31 35 35 34 37 39 39 40 39 37 34 34 33 37 40
14 13 9 13 7 4 13 5 8 2 7 9 9 12 23 24 22 19 18 21 20 21 24 23 21 18 18 20 25 27 24 27 31 34 36 37 38 37 37 37 33 37 38 40
15 18 23 12 12 13 12 15 14 16 16 17 19 21 25 26 29 29 23 20 19 20 21 21 23 24 22 22 20 23 23 24 28 31 30 28 36 38 38 36 37 41 43 43
12 13 13 13 16 18 16 22 21 22 22 22 25 27 26 28 25 23 23 19 16 14 15 15 18 20 20 19 20 22 23 25 25 26 27 30 33 33 31 34 36 39 38 42
19 23 25 24 23 29 23 27 26 26 26 24 26 27 25 22 16 14 13 10 7 9 12 11 12 12 14 14 14 15 15 17 18 21 22 23 25 27 29 31 36 41 44 47
20 23 26 30 33 34 29 28 33 32 30 27 28 26 18 12 10 7 6 3 3 6 9 10 12 13 14 14 12 12 12 12 14 15 19 20 24 25 28 33 35 37 40 39
18 22 20 23 27 32 32 28 29 26 28 24 21 14 6 6 7 6 7 6 6 6 6 9 8 10 11 12 12 10 6 6 9 12 14 16 20 23 34 34 35 41 41 38
26 34 32 27 24 27 29 27 28 26 24 21 16 8 9 8 6 7 9 10 9 7 6 7 6 4 5 5 5 5 6 8 6 8 11 15 18 23 26 30 36 42 42 42
37 32 30 29 28 24 28 26 25 24 20 17 13 8 10 10 13 14 14 13 13 13 11 10 8 8 7 6 5 3 4 5 5 5 8 11 14 18 23 30 34 36 45 50
42 37 35 31 24 24 23 24 20 20 19 17 14 15 17 14 17 19 18 16 17 17 16 15 15 13 11 11 11 10 8 6 6 6 8 8 10 14 21 26 30 34 37 40
32 31 28 30 30 27 20 20 21 24 22 18 20 19 21 20 22 24 23 21 22 21 18 16 16 13 11 13 13 11 13 15 8 6 7 6 7 9 12 17 20 13 11 8
20 23 23 24 24 23 16 19 23 24 24 24 25 20 21 22 24 25 24 23 24 25 24 22 18 14 11 10 11 9 5 2 12 9 7 5 7 6 3 2 4 8 7 7
10 11 7 4 3 12 12 24 17 14 31 32 29 27 27 29 27 24 26 25 24 24 23 23 22 17 16 13 14 14 14 10 7 7 8 9 7 6 5 3 3 4 3 3
49 41 35 44 38 40 41 36 29 26 29 33 31 34 28 29 31 28 24 26 27 24 24 18 18 16 18 16 14 15 15 14 11 6 4 7 7 9 10 8 6 7 7 6
50 51 53 52 48 48 47 43 37 38 37 37 37 38 34 30 28 27 31 32 29 27 23 24 17 15 17 20 18 14 10 12 14 16 15 13 12 12 12 11 6 5 7 11
45 41 43 42 42 43 41 38 38 37 36 39 43 41 40 38 38 37 36 38 30 31 27 24 21 20 19 14 16 14 13 15 14 13 9 10 12 12 13 15 8 1 7 8
31 32 34 36 36 37 34 32 30 30 32 32 32 30 29 27 29 37 37 36 30 30 26 31 30 23 19 18 18 16 17 18 18 16 14 12 14 14 12 8 7 7 5 5
31 31 31 30 27 27 30 30 29 30 30 28 28 30 31 29 28 27 29 28 26 26 28 28 25 23 24 22 22 22 22 22 18 19 18 16 17 15 14 14 12 9 5 5
25 25 24 24 23 25 27 25 26 26 26 25 26 24 22 20 21 20 21 21 23 24 26 25 25 26 25 25 24 24 24 24 22 19 17 17 15 13 11 8 10 9 8 9
22 21 21 20 21 20 19 17 18 18 19 21 22 21 21 20 19 18 17 18 19 20 20 19 21 23 21 21 26 25 23 21 19 19 22 20 19 18 16 16 15 13 10 7
19 17 16 18 17 16 14 15 18 17 16 17 18 17 17 16 16 16 16 19 19 19 18 19 20 19 18 19 18 18 17 17 17 17 18 18 17 17 16 17 17 17 18 18
14 15 12 12 13 14 15 15 14 14 14 13 14 14 14 15 16 16 17 17 16 16 16 15 15 16 15 15 15 15 14 13 16 14 16 17 15 13 11 11 11 11 13 15
Wind_Direction
246 291 280 242 213 216 217 223 228 227 222 237 229 264 271 293 291 274 268 288 253 228 214 216 216 217 218 217 215 212 216 216 220 227 231 233 234 234 234 235 235 233 232 231
246 222 234 234 227 236 235 235 236 244 251 261 251 288 291 283 285 287 282 280 273 249 227 227 224 221 220 223 218 213 214 220 220 225 229 232 235 237 237 236 236 234 234 232
227 200 258 244 225 221 226 227 231 237 241 245 250 257 253 264 271 278 274 272 262 238 240 238 225 228 225 232 219 217 219 221 223 227 233 233 233 235 238 238 237 235 233 234
255 187 238 252 206 212 223 231 230 247 258 266 259 250 254 256 260 268 261 264 258 256 251 246 241 240 239 223 226 219 224 223 228 227 232 231 230 235 236 237 236 235 235 233
236 227 276 241 163 219 212 229 232 250 252 255 253 252 252 254 258 253 254 255 260 261 260 258 249 249 234 223 218 217 225 229 234 234 228 222 235 239 236 233 234 231 233 235
229 239 234 241 230 213 173 250 247 234 249 272 291 250 252 251 249 255 259 260 261 261 259 252 256 248 225 214 213 224 226 227 230 235 236 236 241 237 234 228 228 225 228 233
228 249 250 263 77 51 193 80 55 290 308 309 291 287 292 292 288 288 279 270 263 257 252 247 241 224 225 215 222 230 222 221 228 232 235 238 241 242 241 239 225 229 226 232
233 242 240 259 282 236 1 331 325 321 317 315 304 297 289 283 279 273 275 276 275 264 247 233 229 230 230 233 232 223 219 221 229 235 232 225 235 238 235 234 238 236 238 230
224 234 273 284 247 289 318 308 309 313 314 313 308 306 295 287 278 263 260 267 265 245 222 217 222 222 221 224 217 215 215 222 224 231 233 227 233 228 221 226 223 227 225 229
262 255 262 267 273 277 285 288 297 297 298 304 304 303 293 285 273 258 250 253 244 215 200 195 197 193 196 200 200 203 211 217 221 223 222 219 218 220 221 222 225 225 224 228
263 259 259 254 258 269 274 282 286 290 294 303 310 306 293 268 246 219 207 170 136 150 145 130 149 158 165 173 180 194 199 206 213 217 223 220 220 223 225 227 229 230 231 236
251 251 259 266 260 260 270 280 277 279 279 284 296 285 287 237 203 178 146 116 105 98 100 103 115 136 149 165 170 167 173 204 215 219 228 232 231 237 232 232 234 238 233 234
259 260 260 257 254 264 275 273 275 269 264 265 265 254 200 192 161 136 120 106 86 70 69 75 77 119 140 150 167 187 197 225 235 249 246 243 248 248 249 251 249 248 251 251
255 251 256 251 254 257 249 262 257 256 247 237 238 202 168 143 124 103 89 89 87 77 64 57 57 68 69 71 73 61 11 351 350 303 277 265 260 259 254 257 263 265 255 255
240 237 243 252 250 260 255 251 244 237 227 215 191 169 136 120 109 97 90 87 87 82 68 53 49 59 73 76 73 72 68 59 55 28 5 346 315 289 268 263 262 262 262 256
216 226 233 235 243 252 243 244 237 239 190 182 148 135 124 115 103 94 88 87 84 70 63 61 54 51 66 89 83 62 53 62 56 40 27 14 345 333 303 285 266 270 271 315
178 194 204 220 235 236 236 243 230 185 150 143 127 121 117 110 98 91 87 80 78 76 66 60 45 41 43 52 65 64 43 318 44 44 29 8 23 17 332 315 260 259 277 265
129 148 174 267 250 228 229 100 89 121 135 116 115 115 103 95 86 78 83 87 76 65 68 64 52 35 39 50 53 51 59 58 62 48 36 41 37 10 352 335 308 287 276 189
61 73 65 67 75 75 80 80 76 79 74 87 89 82 82 79 76 78 75 73 70 57 37 61 51 42 40 64 64 53 55 65 66 61 48 61 64 36 9 359 345 327 311 250
63 68 70 68 71 74 75 80 78 77 73 75 83 81 73 70 70 71 73 70 55 54 36 52 47 37 43 41 58 57 67 62 59 58 64 60 57 55 44 27 12 98 132 144
59 63 70 71 70 70 66 68 71 70 73 74 73 69 70 72 73 71 64 64 54 60 48 48 50 47 43 48 53 54 57 59 75 73 57 54 54 57 54 51 47 99 192 189
52 53 59 66 64 66 64 62 70 76 73 71 71 72 66 59 57 66 65 60 59 62 57 54 50 45 58 52 54 58 54 61 66 68 64 74 66 62 64 81 87 80 102 130
46 48 52 53 57 62 67 67 69 69 71 72 70 58 56 56 55 55 54 54 55 59 59 59 58 56 57 58 58 57 58 55 53 59 58 58 65 72 82 80 74 68 82 153
43 44 46 50 56 58 58 57 66 66 67 65 62 72 65 58 60 55 54 60 58 52 57 57 57 54 48 55 59 57 59 60 52 53 55 55 56 52 46 66 88 94 85 63
30 34 40 42 44 44 49 57 64 60 58 58 58 55 54 56 56 51 49 44 49 47 40 45 47 43 43 41 45 54 53 54 52 61 69 59 60 57 53 54 55 50 55 60
21 23 25 34 40 44 44 47 56 54 54 54 53 50 46 42 40 41 35 37 29 32 34 30 35 37 35 39 41 42 38 45 38 41 53 61 69 66 55 53 57 55 54 53
15 21 28 34 42 48 59 62 62 56 51 46 44 35 32 29 24 24 23 27 24 18 19 19 20 25 28 31 31 35 37 29 36 44 40 33 36 48 52 53 58 60 58 57